Location: Estianour
(44.4833°N, 6.3333°E)
Time: 16:38:49
(UTC+00:00)

Daily predictions for brighter satellites

Satellite Brightness Start Highest point End
(mag) Time Altitude Azimuth Time Altitude Azimuth Time Altitude Azimuth
H-2A R/B 4.1 19:50:26 10° SSW 19:55:06 29° W 19:59:47 10° NW
VEP-3 4.4 19:56:34 10° SSW 19:59:12 13° S 20:02:15 10° SE
Cosmos 2322 Rocket 2.3 19:54:59 10° SSW 20:00:36 86° WNW 20:06:16 10° NNE
SPOT 3 Rocket 3.8 19:57:13 10° S 20:02:25 74° WSW 20:07:39 10° NNW
NOSS 7 (D) 3.9 19:59:57 10° SSW 20:02:47 54° SE 20:05:27 10° NE
Cosmos 2237 4.3 19:57:46 10° S 20:03:21 58° ESE 20:09:00 10° NNE
Cosmos 1455 2.4 20:08:58 10° N 20:12:45 55° E 20:16:33 10° SSE
Cosmos 1461 4.0 20:08:23 10° NW 20:12:56 47° WSW 20:17:27 10° S
Cosmos 1825 Rocket 4.2 20:11:13 10° SSE 20:15:19 39° E 20:19:28 10° NNE
ATLAS CENTAUR R/B 3.3 20:16:15 10° N 20:18:42 17° NE 20:21:08 10° E
Cosmos 1703 3.6 20:16:12 10° SSE 20:19:53 44° E 20:23:37 10° NNE
COSMOS 2428 3.8 20:16:19 10° SSE 20:20:45 24° ESE 20:25:13 10° NE
Cosmos 1812 Rocket 3.6 20:18:41 10° N 20:23:02 79° W 20:27:21 10° S
Cosmos 2322 4.1 20:19:06 10° S 20:24:28 44° ESE 20:29:51 10° NE
Cosmos 1844 4.1 20:18:50 10° NNW 20:24:30 54° ENE 20:29:32 13° SE
Delta 2 Rocket 4.4 20:24:17 10° SW 20:26:43 18° S 20:28:10 14° SSE
Cosmos 1602 Rocket 4.2 20:24:20 10° SSW 20:28:40 59° W 20:33:06 10° N
Cosmos 783 Rocket 4.5 20:25:27 10° S 20:30:38 66° ESE 20:35:50 10° NNE
Cosmos 1709 Rocket 4.2 20:25:18 10° SSE 20:31:22 54° E 20:37:33 10° NNE
Cosmos 2263 Rocket 4.1 20:28:11 10° NW 20:32:34 24° WSW 20:36:57 10° SSW
NOSS 3-3 (A) 4.4 20:27:44 10° S 20:32:53 35° ESE 20:38:35 10° NE
NOSS 3-3 (C) 4.5 20:27:51 10° S 20:33:01 35° ESE 20:38:42 10° NE
MetOp-B 4.2 20:28:12 10° SSE 20:33:35 86° WSW 20:38:58 10° NNW
Nadezhda 1 Rocket 4.2 20:27:16 10° N 20:33:43 82° W 20:40:05 10° S
Atlas Centaur 2 3.6 20:30:11 10° SW 20:34:46 23° S 20:38:47 14° SE
Cosmos 2237 Rocket 4.0 20:33:12 11° ESE 20:34:47 12° E 20:36:41 10° ENE
Terra 3.1 20:31:40 12° ESE 20:35:08 27° ENE 20:39:06 10° N
CARTOSAT-1 4.3 20:32:57 14° SE 20:36:10 37° ENE 20:40:10 10° N
Cosmos 2333 4.4 20:30:47 10° S 20:36:13 52° ESE 20:41:44 10° NE
Cosmos 2219 Rocket 2.8 20:31:39 10° S 20:36:41 36° ESE 20:41:45 10° NE
Cosmos 2360 Rocket 2.3 20:32:50 10° SSW 20:38:28 81° WNW 20:44:11 10° NNE
IGS 5A 3.4 20:35:34 13° SSE 20:39:17 80° ENE 20:43:27 10° N
IRIS 4.4 20:39:21 10° WSW 20:42:14 36° S 20:43:18 23° SE
Cosmos 2333 Rocket 2.5 20:41:00 10° S 20:46:24 47° ESE 20:51:52 10° NE
ATLAS 2AS CENTAUR R/B 4.3 20:44:36 10° NNW 20:51:11 29° NNE 20:57:21 10° E
Resurs 01 Rocket 3.1 20:47:13 10° SSW 20:51:12 32° W 20:55:11 10° NNW
Cosmos 1315 Rocket 3.8 20:48:14 10° N 20:51:59 33° ENE 20:54:13 20° SE
Cosmos 1818 4.0 20:48:29 10° SW 20:53:52 65° NW 20:59:18 10° NNE
Cosmos-2242 3.1 20:51:13 10° N 20:55:35 80° W 20:59:06 15° S
Cosmos 773 Rocket 4.0 20:51:12 10° S 20:56:28 73° ESE 21:01:46 10° NNE
SL-16 R/B 4.4 20:52:52 10° WSW 20:57:45 29° NW 21:02:40 10° N
Cosmos 2221 3.9 20:56:45 10° NNE 21:00:26 26° ENE 21:02:29 18° ESE
ERS-1 Rocket 3.0 20:56:51 19° SSE 21:00:33 72° ENE 21:05:35 10° N
GEOS 3 Rocket 3.9 20:58:58 10° NE 21:04:22 78° NW 21:09:45 10° SW
Cosmos 1892 4.4 21:07:02 16° E 21:07:36 17° E 21:10:05 10° NE
USA 215 3.2 21:01:12 10° NE 21:07:45 70° SE 21:14:15 10° SW
Cosmos 2278 Rocket 3.3 21:04:11 10° N 21:09:21 34° NE 21:13:09 16° ESE
ATLAS 5 CENTAUR R/B 2.6 21:06:39 10° WSW 21:10:41 48° NW 21:15:12 10° NNE
USA 245 4.3 21:08:35 15° SSW 21:10:59 37° W 21:14:42 10° NNW
Meteor 1-11 4.2 21:05:32 10° S 21:11:04 85° E 21:16:47 10° NNE
Cosmos 1844 Rocket 3.2 21:08:51 10° NW 21:14:15 52° WSW 21:18:16 18° S
Cosmos 1400 Rocket 3.7 21:11:03 10° NNW 21:14:52 45° W 21:17:41 16° SSW
SPOT 5 2.9 21:13:56 22° SSE 21:17:16 88° ENE 21:22:07 10° NNW
Lacrosse 5 rocket 4.3 21:17:38 10° NW 21:19:59 14° N 21:22:17 10° NNE
USA 81 4.0 21:19:52 17° S 21:24:00 87° W 21:29:19 10° N
Cosmos 2058 4.0 21:24:59 26° ESE 21:25:57 29° E 21:29:33 10° NNE
BREEZE M DEB (TANK) 1.8 21:25:34 10° WNW 21:27:39 53° SW 21:27:39 53° SW
Cosmos 1408 4.4 21:29:06 17° E 21:29:06 17° E 21:31:28 10° NE
Cosmos 2181 Rocket 4.1 21:23:31 10° N 21:29:53 79° W 21:34:14 21° S
Cosmos 2074 Rocket 4.0 21:29:15 23° SSE 21:33:08 63° E 21:39:17 10° NNE
Cosmos 1076 Rocket 4.3 21:36:08 30° ESE 21:37:08 35° E 21:41:02 10° NNE
Cosmos 1680 Rocket 4.2 21:35:42 29° SE 21:37:23 36° ESE 21:42:13 10° NE
USA 267 3.6 21:34:04 15° ESE 21:39:37 63° NNE 21:46:05 10° NW
Cosmos 2084 3.4 21:42:03 10° NW 21:46:31 84° SW 21:48:05 40° SSE
Cosmos 1842 Rocket 3.5 21:43:01 10° N 21:47:23 86° W 21:49:02 38° S
OAO 2 Rocket 4.3 21:43:59 10° WSW 21:48:29 29° S 21:48:29 29° S
JB-3 4.1 21:45:02 10° NNE 21:48:53 75° E 21:49:57 45° S
MTI 3.6 21:49:44 10° N 21:52:49 84° WNW 21:53:10 68° SSW
Cosmos 923 Rocket 4.0 21:52:19 31° S 21:54:48 67° ESE 22:00:04 10° NNE
ATLAS CENTAUR R/B 1.2 21:54:19 10° NW 21:57:55 56° WSW 21:58:26 50° SSW
Cosmos 1825 3.5 21:58:09 26° E 21:58:09 26° E 22:01:17 10° NNE
ALOS 2 4.4 21:58:03 18° E 21:59:36 21° ENE 22:02:54 10° NNE
Cosmos 1980 3.7 21:56:55 31° S 21:59:36 63° ESE 22:05:12 10° NNE
Cosmos 967 Rocket 4.5 21:55:33 11° SSW 22:01:50 85° ESE 22:08:21 10° NE
COSMOS 2428 3.4 21:59:06 10° SW 22:04:37 53° WNW 22:10:12 10° NNE
Cosmos 1869 3.6 22:04:23 10° NNW 22:08:18 59° W 22:09:23 42° SSW
NOSS 0 Rocket 3.9 22:07:31 20° SSW 22:11:58 89° WNW 22:18:11 10° NNE
Terra 2.9 22:10:34 24° SW 22:12:43 37° W 22:17:08 10° NNW
Cosmos 1610 Rocket 4.5 22:11:20 32° S 22:14:31 84° E 22:20:55 10° N
NOSS 3-4 (A) 4.0 22:08:14 10° NW 22:15:12 69° NE 22:19:47 26° SE
NOSS 3-4 (C) 4.0 22:08:20 10° NW 22:15:19 69° NE 22:19:55 26° SE
Cosmos 2237 Rocket 2.1 22:14:58 30° SSW 22:17:52 82° ESE 22:23:37 10° NNE
Genesis I 3.1 22:18:35 64° SE 22:18:37 64° ESE 22:22:30 10° NE
Cosmos 2344 3.5 22:16:02 26° S 22:20:28 61° ESE 22:28:11 10° NE
Cosmos 2219 Rocket 3.6 22:15:27 10° WSW 22:20:35 37° NW 22:25:47 10° NNE
Elektron 1 4.2 22:21:21 48° SW 22:22:12 80° NW 22:27:09 10° NE
BREEZE-M R/B 4.2 22:13:42 10° WNW 22:22:15 42° SW 22:23:36 36° SSW
Atlas Centaur 2 4.1 22:18:21 10° SW 22:21:21 19° SSW 22:21:21 19° SSW
DELTA 2 R/B (1) 3.7 22:23:46 10° WSW 22:29:06 47° S 22:30:03 43° SE
Cosmos 2333 Rocket 4.0 22:25:53 10° WSW 22:30:52 30° NW 22:35:55 10° N
Thor Agena Rocket 3.4 22:26:29 10° NNE 22:31:37 87° ESE 22:33:18 44° SSW
Cosmos 2221 4.0 22:34:11 10° NNW 22:37:59 29° W 22:39:20 24° WSW
BREEZE-M DEB (TANK) 2.3 22:37:42 10° WNW 22:41:16 45° NNE 22:41:22 45° NNE
Iridium 2 3.7 22:38:24 10° N 22:42:12 67° W 22:42:26 65° WSW
Cosmos 1371 Rocket 3.9 22:37:31 10° NNW 22:42:49 90° WSW 22:44:15 50° SSE
Cosmos 1892 4.0 22:41:59 28° WSW 22:43:01 33° WNW 22:46:29 10° N
ATLAS 2AS CENTAUR R/B 2.7 22:35:37 10° NW 22:43:13 89° NE 22:46:24 36° SE
EO 1 Del DPAF 3.2 22:40:54 10° N 22:44:40 70° WNW 22:44:59 65° WSW
Cosmos 1766 Rocket 3.8 22:44:24 51° ESE 22:44:44 53° E 22:49:02 10° NNE
MOS 1-B Rocket 4.3 22:38:55 10° NNE 22:46:39 87° WNW 22:49:57 34° SSW
Okean 3 Rocket 3.5 22:47:03 61° SE 22:47:33 67° E 22:51:57 10° NNE
Aureole 2 Rocket 3.5 22:47:01 10° N 22:48:59 35° NNE 22:48:59 35° NNE
Cosmos 1328 Rocket 4.1 22:45:45 10° N 22:49:54 44° ENE 22:50:25 42° E
USA 215 4.3 22:44:21 10° NE 22:50:34 47° NNW 22:56:46 10° W
Cosmos 2112 Rocket 4.4 22:48:24 31° SW 22:50:54 63° WNW 22:56:15 10° NNE
Cosmos 1606 2.9 22:48:25 10° N 22:52:16 59° E 22:52:19 58° E
Cosmos 2218 Rocket 4.3 22:50:54 40° SSE 22:52:58 57° E 22:59:08 10° NNE
Cosmos 2278 Rocket 3.0 22:48:14 10° NW 22:53:29 40° WSW 22:54:59 33° SW
Cosmos 2297 3.9 22:49:23 10° NNW 22:55:07 64° ENE 22:57:11 39° SE
Cosmos 158 Rocket 4.5 22:52:56 29° SW 22:55:08 51° WNW 22:59:56 10° NNE
Cosmos 2366 rocket 4.2 22:56:35 41° SSE 22:58:39 60° E 23:04:53 10° NNE
Cosmos 1420 Rocket 4.3 22:53:47 10° NNW 22:59:00 59° ENE 23:00:36 41° ESE
Spot 4 4.2 22:59:07 44° SW 23:00:03 51° W 23:04:44 10° NNW
Lacrosse 5 rocket 4.0 22:57:39 10° NNW 23:00:31 18° NNE 23:03:16 10° ENE
Cosmos 1633 4.3 23:01:11 22° ENE 23:01:11 22° ENE 23:03:34 10° NE
Cosmos 1943 Rocket 3.3 22:56:23 10° NNW 23:01:38 37° NE 23:04:41 22° ESE
SL-16 R/B 2.2 23:00:46 50° S 23:02:12 70° ESE 23:07:52 10° NNE
Cosmos 1408 4.0 23:03:24 28° W 23:03:52 28° WNW 23:07:01 10° NNW
Cosmos 2056 Rocket 3.6 23:01:22 10° NNW 23:06:45 66° WSW 23:07:58 51° SSW
Cosmos 1959 Rocket 4.4 23:06:20 45° SSE 23:08:15 72° E 23:14:25 10° NNE
Cosmos 2341 Rocket 4.2 23:11:47 37° SSW 23:14:18 65° W 23:20:30 10° N
Cosmos 332 Rocket 4.1 23:15:38 10° NNW 23:20:22 57° ENE 23:21:28 45° ESE
Meteor 2-3 Rocket 3.7 23:21:02 51° SSE 23:22:26 75° E 23:28:08 10° NNE
USA 267 3.6 23:21:24 40° SSW 23:22:46 44° SW 23:29:00 10° WNW
IRIDIUM 104 4.3 23:23:26 53° SSW 23:24:37 76° W 23:29:52 10° N
Cosmos 2151 4.1 23:23:52 32° WSW 23:24:45 36° WNW 23:28:43 10° N
Helios 1A 2.9 23:24:53 69° ESE 23:25:10 72° ENE 23:29:20 10° N
Cosmos 405 3.9 23:26:01 10° N 23:29:08 40° ENE 23:29:08 40° ENE
SL-8 Rocket 4.2 23:30:58 38° SW 23:33:15 62° W 23:39:23 10° N
Cosmos 1825 4.0 23:32:56 21° W 23:33:34 22° WNW 23:36:33 10° NNW
Meteor 1-26 Rocket 4.3 23:27:34 10° N 23:33:37 89° E 23:35:20 49° S
Cosmos 1452 Rocket 3.5 23:28:32 10° NNW 23:33:50 79° ENE 23:35:06 53° SE
Cosmos 1340 2.8 23:34:23 65° WNW 23:34:23 65° WNW 23:37:57 10° N
CZ-4C R/B 3.9 23:27:49 10° NNW 23:34:31 44° NE 23:42:12 10° ESE
ALOS 2 3.3 23:35:27 40° WSW 23:35:40 40° W 23:39:50 10° NNW
COSMOS 2455 3.1 23:29:37 10° NNW 23:35:40 67° NE 23:38:24 33° SE
Cosmos 1408 Rocket 3.5 23:35:56 68° WSW 23:36:19 73° W 23:40:43 10° N
PSLV R/B 4.3 23:32:32 10° NNE 23:36:32 39° E 23:36:34 39° E
Cosmos 1603 4.4 23:36:25 35° SE 23:37:17 37° ESE 23:42:29 10° NE
Cosmos 1933 3.7 23:34:24 10° NNW 23:38:13 52° W 23:38:13 52° W
Cosmos 1151 Rocket 3.4 23:35:41 10° NNW 23:39:52 48° W 23:40:03 48° WSW
Cosmos 44 3.9 23:43:38 33° W 23:45:01 45° NW 23:49:18 10° NNE
Cosmos 1500 Rocket 3.5 23:44:49 65° ESE 23:45:07 68° E 23:49:30 10° NNE
Cosmos 1727 Rocket 3.9 23:39:48 10° N 23:46:04 84° W 23:48:04 47° S
Cosmos 2369 Rocket 2.7 23:40:47 10° NNW 23:46:18 55° ENE 23:48:49 31° ESE
Resurs 1-4 Rocket 4.3 23:44:29 10° ENE 23:46:46 13° E 23:48:44 11° ESE
GP-B 4.1 23:44:07 10° NNW 23:48:09 35° W 23:48:50 33° W
Cosmos 371 Rocket 3.4 23:45:16 10° NNW 23:50:02 55° WSW 23:50:25 53° SW
SeaSat 1 4.2 23:47:31 10° ENE 23:50:58 19° ESE 23:51:20 19° ESE
Helios 1B rocket 2.8 23:51:18 10° NNE 23:55:20 52° E 23:55:23 52° ESE
